Terminal Aerodrome Forecast
Issued by NWS Pendleton, OR

Home | Current Version | Previous Version | Text Only | Print | Product List | Glossary On
Versions: 1 2 3 4 5 6 7 8 9 10 11 12 13 14 15 16 17 18 19 20
000
FTUS46 KPDT 262320
TAFPDT
TAF
KPDT 262320Z 2700/2724 26018G27KT P6SM VCSH FEW040 BKN060 OVC090
     FM270400 26025G33KT P6SM BKN060 OVC090
     FM271200 26022G30KT P6SM BKN080
     FM271800 27020G30KT P6SM SCT060 SCT080=

USA.gov is the U.S. government's official web portal to all federal, state and local government web resources and services.